Weather Roundup
Issued by NWS

Home | Current Version | Previous Version | Text Only | Print | Product List | Glossary On
Versions: 1 2 3 4 5 6 7 8 9 10 11 12 13 14 15 16 17 18 19 20 21 22 23 24 25 26 27 28 29 30 31 32 33 34 35 36 37 38 39 40 41 42 43 44 45 46 47 48 49 50
000
NZUS93 KARX 281210
HRRWXR

CURRENT HOURLY OBSERVATIONS ACROSS
MUCH OF THE UPPER MISSISSIPPI VALLEY
NATIONAL WEATHER SERVICE LA CROSSE WI
600 AM CST FRI NOV 28 2014


...SOUTHEAST MINNESOTA...


CITY           SKY/WX    TMP DP  RH WIND       PRES   REMARKS
ROCHESTER      CLOUDY    14   8  77 SE18      30.01F WCI  -3
ROCHESTER/MAYO CLOUDY    14   7  74 SE15      30.02F WCI  -2
WINONA         CLOUDY    16  12  86 SE13      30.11F WCI   2
AUSTIN         MOCLDY    14   7  73 SE10G16   30.01F WCI   1
ALBERT LEA     FAIR      14   7  73 SE20      29.99F WCI  -3
DODGE CENTER   MOCLDY    14   9  79 S14       29.99F WCI  -1
PRESTON        CLOUDY    13   8  81 SE12      30.04F WCI  -1
OWATONNA       MOCLDY    14   7  73 SE20      29.98F WCI  -3
FARIBAULT      PTCLDY    14   7  73 SE8       30.00F WCI   3
$$

...ELSEWHERE IN MINNESOTA...


CITY           SKY/WX    TMP DP  RH WIND       PRES   REMARKS
MINNEAPOLIS    CLOUDY    12   7  80 SE7       30.05F WCI   1
INTNL FALLS    CLOUDY     5  -2  72 E5        30.05F WCI  -4
DULUTH         LGT SNOW   7   2  80 SE6       30.04F WCI  -3
RED WING       CLOUDY    14   9  79 SE8       30.05F WCI   3
REDWOOD FALLS  PTCLDY    10   4  76 E9        29.95F WCI  -3
MANKATO        PTCLDY    10   3  72 SE8       29.99S WCI  -1
WORTHINGTON    PTCLDY    12  10  92 S8        29.89F WCI   1
FAIRMONT       PTCLDY    14   9  79 S12       29.95S WCI   0
$$

...SOUTHWEST WISCONSIN...


CITY           SKY/WX    TMP DP  RH WIND       PRES   REMARKS
LA CROSSE      CLOUDY    16   9  74 SE10      30.14F WCI   4
PRAIRIE DU CHI PTCLDY    17   9  71 SE9       30.16F WCI   5
BOSCOBEL       CLOUDY    17   8  67 CALM      30.19F
LONE ROCK      CLOUDY    18  10  71 SE9       30.20F WCI   7
PLATTEVILLE    CLOUDY    15   9  76 SE12      30.17F WCI   2
FORT MC COY    CLOUDY    13   8  80 SE7       30.15F WCI   3
CAMP DOUGLAS   CLOUDY    12  11  96 SE9       30.16F WCI  -1
VIROQUA        CLOUDY    12  10  89 SE14      30.10F WCI  -3
WIS DELLS      LGT SNOW  13  10  84 SE7       30.18F WCI   3
$$

...ELSEWHERE IN WISCONSIN...


CITY           SKY/WX    TMP DP  RH WIND       PRES   REMARKS
MILWAUKEE      CLOUDY    16   9  74 S7        30.27F WCI   6
MADISON        LGT SNOW  15  11  83 SE12      30.21F FOG     WCI   2
GREEN BAY      CLOUDY    11   7  84 S3        30.26F
EAU CLAIRE     CLOUDY    11   5  77 SE8       30.10F WCI  -1
BLACK RVR FLS  CLOUDY    13   8  82 SE5       30.14F WCI   5
MEDFORD        FLURRIES   7   3  84 SE7       30.10F WCI  -5
WAUSAU         LGT SNOW   7   3  84 SE5       30.15F FOG     WCI  -2
WIS RAPIDS     CLOUDY    10   4  76 SE6       30.19F WCI   0
MARSHFIELD     LGT SNOW   9   4  80 SE8       30.13F WCI  -3
RICE LAKE      CLOUDY    10   5  83 E9        30.10F FOG     WCI  -4
$$

...NORTHEAST IOWA...


CITY           SKY/WX    TMP DP  RH WIND       PRES   REMARKS
DECORAH        CLOUDY    14   9  79 SE12G20   30.06F WCI   0
MASON CITY     CLEAR     13   6  74 SE15      30.01F WCI  -3
CHARLES CITY   MOCLDY    16   5  62 SE21      30.04F WCI  -2
OELWEIN        CLOUDY    16   7  67 SE22      30.08F WCI  -2
$$

...ELSEWHERE IN IOWA...


CITY           SKY/WX    TMP DP  RH WIND       PRES   REMARKS
DES MOINES     PTCLDY    20  13  74 E9        30.04F WCI   9
IOWA CITY      PTCLDY    14   8  77 SE12      30.17F WCI   0
FORT DODGE     MOCLDY    18  12  79 S10       29.96F WCI   6
$$

...NORTHERN ILLINOIS...


CITY           SKY/WX    TMP DP  RH WIND       PRES   REMARKS
CHICAGO-OHARE  CLOUDY    20  13  74 S6        30.30F WCI  12
CHICAGO-MIDWAY CLOUDY    22  13  68 S6        30.31F WCI  14
MOLINE         CLOUDY    18   8  65 SE10      30.22F WCI   6
ROCKFORD       CLOUDY    18  10  71 S9        30.29F WCI   7
PEORIA         PTCLDY    19   9  65 SE8       30.28F WCI   9
$$

NOTE: "FAIR" INDICATES FEW OR NO CLOUDS BELOW 12,000 FEET WITH NO
SIGNIFICANT WEATHER AND/OR OBSTRUCTIONS TO VISIBILITY. WIND
SPEEDS ARE IN MILES-PER-HOUR.



USA.gov is the U.S. government's official web portal to all federal, state and local government web resources and services.